Location: Peebles
(55.6412°N, 3.1714°W)
Time: 07:02:57
(UTC+00:00)

BEESAT 2 - Visible Passes

Search period start: 30 November 2022 00:00
Search period end: 10 December 2022 00:00
Orbit: 468 x 503 km, 64.9° (Epoch: 29 November)

Date Brightness Start Highest point End Pass type
(mag) Time Alt. Az. Time Alt. Az. Time Alt. Az.
30 Nov ? 17:56:52 10° WSW 18:00:35 51° NW 18:02:07 31° NNE visible
30 Nov ? 19:35:13 10° WNW 19:36:29 16° NW 19:36:29 16° NW visible
01 Dec ? 17:31:23 10° WSW 17:35:08 58° NW 17:37:28 22° NE visible
01 Dec ? 19:09:39 10° WNW 19:11:50 21° NW 19:11:50 21° NW visible
02 Dec ? 17:05:54 10° WSW 17:09:41 66° NW 17:12:46 15° NE visible
02 Dec ? 18:44:05 10° WNW 18:47:08 25° NNW 18:47:08 25° NNW visible
03 Dec ? 16:40:25 10° SW 16:44:12 75° NW 16:48:02 10° NE visible
03 Dec ? 18:18:29 10° WNW 18:21:44 26° NNW 18:22:23 25° N visible
04 Dec ? 17:52:51 10° W 17:56:10 27° NNW 17:57:36 22° NNE visible
04 Dec ? 19:31:13 10° NW 19:31:57 13° NW 19:31:57 13° NW visible
05 Dec ? 17:27:11 10° W 17:30:35 29° NNW 17:32:47 17° NNE visible
05 Dec ? 19:05:37 10° NW 19:07:08 17° NNW 19:07:08 17° NNW visible
06 Dec ? 17:01:31 10° W 17:04:58 31° NNW 17:07:56 13° NE visible
06 Dec ? 18:39:58 10° NW 18:42:17 20° NNW 18:42:17 20° NNW visible
07 Dec ? 16:35:50 10° W 16:39:20 34° NNW 16:42:53 10° NE visible
07 Dec ? 18:14:18 10° NW 18:17:15 21° N 18:17:24 21° N visible
08 Dec ? 17:48:35 10° NW 17:51:33 21° N 17:52:30 19° NNE visible
08 Dec ? 19:26:18 10° NW 19:26:50 13° NW 19:26:50 13° NW visible
09 Dec ? 17:22:50 10° WNW 17:25:50 21° N 17:27:35 16° NNE visible
09 Dec ? 19:00:40 10° NW 19:01:55 17° NNW 19:01:55 17° NNW visible
